This is the latest recevied weather packets stored in our database for station/object IA5ITY-13. If no packets are shown the sender has not sent any weather packets the latest 10 day(s).
| Time | Temp. | Humidity | Pressure | Rain* | Wind** | Luminosity | Snow |
|---|---|---|---|---|---|---|---|
| 1777611309 | 15° C | 17% | 1021.8 hPa | 0 mm | - | - | - |
| 1777611012 | 15° C | 17% | 1021.9 hPa | 0 mm | - | - | - |
| 1777610712 | 15° C | 16% | 1021.8 hPa | 0 mm | - | - | - |
| 1777610412 | 13.89° C | 20% | 1021.8 hPa | 0 mm | - | - | - |
| 1777610109 | 13.89° C | 18% | 1021.8 hPa | 0 mm | - | - | - |
| 1777609822 | 15° C | 15% | 1021.6 hPa | 0 mm | - | - | - |
| 1777609510 | 13.89° C | 14% | 1021.7 hPa | 0 mm | - | - | - |
| 1777609213 | 15° C | 13% | 1021.6 hPa | 0 mm | - | - | - |
| 1777608913 | 15° C | 13% | 1021.5 hPa | 0 mm | - | - | - |
| 1777608613 | 15° C | 11% | 1021.3 hPa | 0 mm | - | - | - |
| 1777608309 | 15° C | 10% | 1021.2 hPa | 0 mm | - | - | - |
| 1777608034 | 15° C | 12% | 1021.1 hPa | 0 mm | - | - | - |
| 1777607709 | 15° C | 11% | 1021.1 hPa | 0 mm | - | - | - |
| 1777607413 | 15° C | 11% | 1021.1 hPa | 0 mm | - | - | - |
| 1777607112 | 15° C | 12% | 1021 hPa | 0 mm | - | - | - |
| 1777606813 | 15° C | 11% | 1021 hPa | 0 mm | - | - | - |
| 1777606510 | 15° C | 12% | 1020.9 hPa | 0 mm | - | - | - |
| 1777606222 | 13.89° C | 15% | 1021.2 hPa | 0 mm | - | - | - |
| 1777605909 | 15° C | 17% | 1021.2 hPa | 0 mm | - | - | - |
| 1777605612 | 13.89° C | 21% | 1021.1 hPa | 0 mm | - | - | - |
| 1777605312 | 15° C | 21% | 1021 hPa | 0 mm | - | - | - |
| 1777605013 | 13.89° C | 26% | 1021 hPa | 0 mm | - | - | - |
| 1777604709 | 13.89° C | 21% | 1021 hPa | 0 mm | - | - | - |
| 1777604433 | 13.89° C | 20% | 1020.9 hPa | 0 mm | - | - | - |
| 1777604109 | 13.89° C | 18% | 1020.9 hPa | 0 mm | - | - | - |
* Rain latest hour (hover to see other rain measurements)
** Current wind speed in m/s (hover to see current wind gust speed)